XTAR-EUR

Last updated on Sat Apr 13 2024 01:02:36 GMT+0100 (British Summer Time)

1 28542U 05005A 24102.60433927 .00000144 00000+0 00000+0 0 9991 2 28542 2.2781 86.5881 0003518 268.9853 91.2829 1.00269503 70203
UTC large
Height (km)
Speed (km/s)
/
Latitude / Longitude
Inclination (degrees)
Orbital Period (minutes)
Azimuth
Elevation
Range (km)
Doppler Factor

Next 0 passes for location: London (51.5072 / 0.1276)

Sorry there are no passes over London.